Location: Lanoux
(43.1180°N, 1.4255°E)
Time: 03:12:41
(UTC+00:00)

Meteor 2-10 - Pass Details

Date: 14 March 2026
Orbit: 736 x 866 km, 81.2° (Epoch: 13 April)

Event Time Altitude Azimuth Distance (km) Brightness Sun altitude
Rises 20:51:37 0° 249° (WSW) 3,296 7.8 -31.0°
Reaches altitude 10° 20:57:03 10° 295° (WNW) 2,330 7.4 -31.9°
Maximum altitude 20:57:23 10° 299° (WNW) 2,324 7.4 -31.9°
Drops below altitude 10° 20:57:43 10° 303° (WNW) 2,326 7.4 -32.0°
Sets 21:03:04 0° 349° (N) 3,221 7.8 -32.8°
